ドゥ・トイト彗星

66P/du Toit (2018)

English version
Home page
Updated on June 11, 2016

---------------------------------------------------------------------

・ プロフィール

・ 軌道要素

Epoch 2018 May 2.0 TT = JDT 2458240.5
T 2018 May 19.14383 TT                                  Kobayashi
q   1.2901098            (2000.0)            P               Q
n   0.06616919     Peri.  257.21286     +0.13916714     +0.98304300
a   6.0538572      Node    21.89623     -0.73799331     +0.18336132
e   0.7868946      Incl.   18.67498     -0.66030173     +0.00225330
P  14.9
From 138 observations 1944 May 30-2003 Sept. 8, mean residual 0".7.
     Nongravitational parameters A1 = +0.02, A2 = -0.0111.

・ 星図

・ 光度変化

        m1 = 13.0 + 5 logΔ + 15.0 log r  [   ,-50]  (              〜2018年 3月30日)
        m1 =  8.7 + 5 logΔ + 30   log r  [-50, 50]  (2018年 3月30日〜2018年 7月 8日)
        m1 = 13.0 + 5 logΔ + 15.0 log r  [ 50,   ]  (2018年 7月 8日〜              )

---------------------------------------------------------------------

軌道要素はM.P.E.C. 2015-M77に掲載されたものです。
星図はステラナビゲータ Ver.8 (アストロアーツ) で作成したものです。
光度グラフはComet for Windowsで作成したものです。

---------------------------------------------------------------------

Copyright(C) Seiichi Yoshida (comet@aerith.net). All rights reserved.